Williamsport, PA

5:05 AM EDT on June 21, 2018 (GMT -0400)
Williamsport Rgnl

Weather History for KIPT - November, 2017

Change the Weather History Date:

Wednesday, November 15, 2017

  Actual Average Record
Temperature  
Mean Temperature 41 °F 42 °F  
Max Temperature 49 °F 50 °F 72 °F (1993)
Min Temperature 32 °F 34 °F 17 °F (1996)
Degree Days  
Heating Degree Days 24 23  
Month to date heating degree days 337 311  
Since 1 July heating degree days 623 854  
Cooling Degree Days 0 0  
Month to date cooling degree days 0 0  
Year to date cooling degree days 929 702  
Moisture  
Dew Point 33 °F    
Average Humidity 73    
Maximum Humidity 96    
Minimum Humidity 50    
Precipitation  
Precipitation 0.00 in 0.13 in 1.41 in (1983)
Month to date precipitation 0.84 1.73  
Year to date precipitation 44.81 36.34  
Snow  
Snow 0.00 in 0.10 in 2.50 in (1995)
Month to date snowfall T 0.6  
Since 1 July snowfall T 0.7  
Since 1 September snowfall T 0.7  
Snow Depth 0.00 in    
Sea Level Pressure  
Sea Level Pressure 30.16 in    
Wind  
Wind Speed 5 mph (SE)    
Max Wind Speed 21 mph    
Max Gust Speed 31 mph    
Visibility 10 miles    
Events      
T = Trace of Precipitation, MM = Missing Value Source: NWS Daily Summary

Daily Weather History Graph

Daily Weather History Graph

Search for Another Location

Airport or City:

Astronomy

Nov. 15, 2017 Rise Set
Actual Time 6:56 AM EST 4:48 PM EST
Civil Twilight 6:26 AM EST 5:17 PM EST
Nautical Twilight 5:52 AM EST 5:51 PM EST
Astronomical Twilight 5:20 AM EST 6:23 PM EST
Moon 3:52 AM EST (11/15) 3:44 PM EST (11/15)
Length of Visible Light 10h 51m
Length of Day
9h 52m
Waning Crescent, 7% of the Moon is Illuminated
Nov 15
Waning Crescent
Nov 18
New
Nov 26
First Quarter
Dec 3
Full
Dec 10
Last Quarter

Hourly Weather History & Observations

Time (EST) Temp. Windchill Dew Point Humidity Pressure Visibility Wind Dir Wind Speed Gust Speed Precip Events Conditions
12:54 AM 41.0 °F - 34.0 °F 76% 30.28 in 10.0 mi Calm Calm - N/A   Overcast
1:54 AM 41.0 °F - 34.0 °F 76% 30.30 in 10.0 mi Calm Calm - N/A   Overcast
2:54 AM 39.9 °F 37.8 °F 33.1 °F 77% 30.30 in 10.0 mi West 3.5 mph - N/A   Overcast
3:54 AM 39.0 °F 36.8 °F 32.0 °F 76% 30.28 in 10.0 mi West 3.5 mph - N/A   Overcast
4:54 AM 37.9 °F - 30.9 °F 76% 30.28 in 10.0 mi Calm Calm - N/A   Overcast
5:54 AM 35.1 °F - 30.9 °F 85% 30.29 in 10.0 mi Calm Calm - N/A   Clear
6:54 AM 33.1 °F - 30.0 °F 89% 30.30 in 9.0 mi Calm Calm - N/A   Clear
7:54 AM 34.0 °F - 32.0 °F 92% 30.28 in 9.0 mi Calm Calm - N/A   Clear
8:34 AM 36.0 °F 33.3 °F 33.1 °F 89% 30.26 in 8.0 mi SSE 3.5 mph - N/A   Partly Cloudy
8:54 AM 37.0 °F - 34.0 °F 89% 30.26 in 10.0 mi Calm Calm - N/A   Clear
9:54 AM 41.0 °F - 34.0 °F 76% 30.25 in 10.0 mi Calm Calm - N/A   Clear
10:54 AM 46.0 °F 42.5 °F 32.0 °F 58% 30.22 in 10.0 mi Variable 6.9 mph - N/A   Clear
11:54 AM 46.0 °F 41.4 °F 32.0 °F 58% 30.18 in 10.0 mi South 9.2 mph - N/A   Scattered Clouds
12:54 PM 46.9 °F - 30.9 °F 54% 30.14 in 10.0 mi ESE 9.2 mph - N/A   Scattered Clouds
1:54 PM 48.9 °F - 33.1 °F 54% 30.12 in 10.0 mi ESE 9.2 mph 18.4 mph N/A   Partly Cloudy
2:54 PM 48.0 °F - 30.9 °F 52% 30.08 in 10.0 mi ESE 9.2 mph - N/A   Clear
3:54 PM 48.0 °F - 30.9 °F 52% 30.07 in 10.0 mi ESE 11.5 mph 19.6 mph N/A   Clear
4:54 PM 46.9 °F - 32.0 °F 56% 30.04 in 10.0 mi Variable 4.6 mph - N/A   Clear
5:54 PM 46.9 °F - 32.0 °F 56% 30.05 in 10.0 mi Variable 6.9 mph - N/A   Clear
6:54 PM 46.9 °F - 33.1 °F 59% 30.04 in 10.0 mi Variable 4.6 mph - N/A   Overcast
7:54 PM 46.9 °F - 34.0 °F 61% 30.02 in 10.0 mi ENE 11.5 mph 18.4 mph N/A   Mostly Cloudy
8:54 PM 46.9 °F - 34.0 °F 61% 30.01 in 10.0 mi Variable 4.6 mph - N/A   Overcast
9:54 PM 46.9 °F - 35.1 °F 63% 29.98 in 10.0 mi SSE 11.5 mph 26.5 mph N/A   Partly Cloudy
10:54 PM 48.0 °F - 36.0 °F 63% 29.96 in 10.0 mi SE 8.1 mph 19.6 mph N/A   Overcast
11:54 PM 48.0 °F - 37.9 °F 68% 29.93 in 10.0 mi SSE 13.8 mph 25.3 mph N/A   Overcast